Location: Tierz
(42.1336°N, 0.3549°W)
Time: 17:44:48
(UTC+00:00)

SeaSat 1 - Pass Details

Date: 29 October 2020
Orbit: 744 x 747 km, 108.0° (Epoch: 03 December)

Event Time Altitude Azimuth Distance (km) Brightness Sun altitude
Exits shadow 18:00:37 13° 55° (NE) 2,059 4.2 -12.0°
Maximum altitude 18:01:26 14° 44° (NE) 2,029 4.2 -12.2°
Drops below altitude 10° 18:03:47 10° 15° (NNE) 2,271 4.7 -12.6°
Sets 18:07:11 0° 350° (N) 3,200 5.8 -13.2°
